Tracking 21612 objects as of 19-Oct-2020
HD Live streaming from Space Station
objects crossing your sky now

SL-12 R/B(AUX MOTOR)

Track SL-12 R/B(AUX MOTOR) now!
10-day predictions


NORAD ID: 14607
Int'l Code: 1983-127G
Perigee: 372.3 km
Apogee: 17,570.4 km
Inclination: 52.0 °
Period: 315.2 minutes
Semi major axis: 15342 km
RCS: 1.0446 m2 (large)
Launch date: December 29, 1983
Source: Commonwealth of Independent States (former USSR) (CIS)
Launch site: TYURATAM MISSILE AND SPACE COMPLEX (TTMTR)

Note: This is a ROCKET BODY
aabbcc
Your satellite tracking list
Your tracking list is empty




NASA's NSSDC Master Catalog

Two Line Element Set (TLE):
1 14607U 83127G   20293.17966501  .00000152  00000-0  53859-4 0  9992
2 14607  51.9920 242.4081 5604803 233.3798  61.1464  4.56842569596357
Source of the keplerian elements: AFSPC